timestamp,surface_pressure_avg,surface_temp_avg,battery_voltage,lat,long
2022-10-16 00:09:00+00:00,244.0731,13.5,12.01,47.84626,-54.09684
2022-10-16 00:19:00+00:00,248.5547,13.55,12.01,47.84626,-54.09684
2022-10-16 00:29:00+00:00,251.0448,13.6,12.01,47.84626,-54.09684
2022-10-16 00:39:00+00:00,251.5914,13.6,12.01,47.84626,-54.09684
2022-10-16 00:49:00+00:00,254.0131,13.65,12.01,47.84626,-54.09684
2022-10-16 00:59:00+00:00,259.1581,13.66,12.01,47.84626,-54.09684
2022-10-16 01:09:00+00:00,263.288,13.68,12.01,47.84626,-54.09684
2022-10-16 01:19:00+00:00,267.6697,13.69,12.01,47.84626,-54.09684
2022-10-16 01:29:00+00:00,270.5281,13.7,12.01,47.84626,-54.09684
2022-10-16 01:39:00+00:00,275.598,13.67,12.01,47.84626,-54.09684
2022-10-16 01:49:00+00:00,278.603,13.65,12.01,47.84626,-54.09684
2022-10-16 01:59:00+00:00,279.9915,13.67,12.01,47.84626,-54.09684
2022-10-16 02:09:00+00:00,280.5264,13.68,12.01,47.84626,-54.09684
2022-10-16 02:19:00+00:00,286.0647,13.68,12.01,47.84626,-54.09684
2022-10-16 02:29:00+00:00,290.5697,13.68,12.01,47.84626,-54.09684
2022-10-16 02:39:00+00:00,290.348,13.68,12.01,47.84626,-54.09684
2022-10-16 02:49:00+00:00,287.4765,13.65,12.01,47.84626,-54.09684
2022-10-16 02:59:00+00:00,289.3265,13.66,12.01,47.84626,-54.09684
2022-10-16 03:09:00+00:00,290.3047,13.67,12.01,47.84626,-54.09684
2022-10-16 03:19:01+00:00,289.7996,13.67,12.01,47.84626,-54.09684
2022-10-16 03:29:01+00:00,291.203,13.66,12.01,47.84626,-54.09684
2022-10-16 03:39:01+00:00,295.7614,13.67,12.01,47.84626,-54.09684
2022-10-16 03:49:01+00:00,295.5797,13.68,12.01,47.84626,-54.09684
2022-10-16 03:59:01+00:00,291.6747,13.64,12.01,47.84626,-54.09684
2022-10-16 04:09:01+00:00,290.0013,13.6,12.01,47.84626,-54.09684
2022-10-16 04:19:00+00:00,292.9581,13.6,12.01,47.84626,-54.09684
2022-10-16 04:29:00+00:00,293.138,13.61,12.01,47.84626,-54.09684
2022-10-16 04:39:00+00:00,290.738,13.6,12.01,47.84626,-54.09684
2022-10-16 04:49:00+00:00,291.1896,13.6,12.01,47.84626,-54.09684
2022-10-16 04:59:00+00:00,291.483,13.6,12.01,47.84626,-54.09684
2022-10-16 05:09:00+00:00,290.4714,13.6,12.01,47.84626,-54.09684
2022-10-16 05:19:00+00:00,289.8264,13.6,12.01,47.84626,-54.09684
2022-10-16 05:29:00+00:00,287.9197,13.6,12.01,47.84626,-54.09684
2022-10-16 05:39:00+00:00,282.2364,13.6,12.01,47.84626,-54.09684
2022-10-16 05:49:00+00:00,278.1664,13.6,12.01,47.84626,-54.09684
2022-10-16 05:59:00+00:00,273.2996,13.6,12.01,47.84626,-54.09684
2022-10-16 06:09:00+00:00,267.5681,13.6,12.01,47.84626,-54.09684
2022-10-16 06:19:00+00:00,260.0997,13.6,12.01,47.84626,-54.09684
2022-10-16 06:29:00+00:00,255.5114,13.6,12.01,47.84626,-54.09684
2022-10-16 06:39:00+00:00,249.5898,13.6,12.01,47.84626,-54.09684
2022-10-16 06:49:00+00:00,245.5031,13.6,12.01,47.84626,-54.09684
2022-10-16 06:59:00+00:00,241.7481,13.6,12.01,47.84626,-54.09684
2022-10-16 07:09:00+00:00,237.9531,13.6,12.01,47.84626,-54.09684
2022-10-16 07:19:00+00:00,230.9464,13.5,12.01,47.84626,-54.09684
2022-10-16 07:29:00+00:00,221.6664,13.37,12.01,47.84626,-54.09684
2022-10-16 07:39:00+00:00,214.4848,13.3,12.01,47.84626,-54.09684
2022-10-16 07:49:00+00:00,212.0331,13.2,12.01,47.84626,-54.09684
2022-10-16 07:59:00+00:00,207.7064,13.2,12.01,47.84626,-54.09684
2022-10-16 08:09:00+00:00,202.5348,13.2,12.01,47.84626,-54.09684
2022-10-16 08:19:00+00:00,200.4215,13.19,11.93,47.84626,-54.09684
2022-10-16 08:29:00+00:00,199.4165,13.17,11.93,47.84626,-54.09684
2022-10-16 08:39:00+00:00,198.5648,13.16,11.93,47.84626,-54.09684
2022-10-16 08:49:00+00:00,199.1898,13.16,11.93,47.84626,-54.09684
2022-10-16 08:59:00+00:00,200.2565,13.16,11.93,47.84626,-54.09684
2022-10-16 09:09:00+00:00,201.4648,13.16,11.93,47.84626,-54.09684
2022-10-16 09:19:00+00:00,203.8164,13.12,11.93,47.84626,-54.09684
2022-10-16 09:29:00+00:00,207.9748,13.1,11.93,47.84626,-54.09684
2022-10-16 09:39:00+00:00,212.7098,13.1,11.93,47.84626,-54.09684
2022-10-16 09:49:00+00:00,213.683,13.1,11.93,47.84626,-54.09684
2022-10-16 09:59:00+00:00,215.4365,13.1,11.93,47.84626,-54.09684
2022-10-16 10:09:00+00:00,223.3181,13.1,11.93,47.84626,-54.09684
2022-10-16 10:19:00+00:00,228.1597,13.1,11.93,47.84626,-54.09684
2022-10-16 10:29:00+00:00,229.3498,13.1,11.93,47.84626,-54.09684
2022-10-16 10:39:00+00:00,235.0848,13.1,11.93,47.84626,-54.09684
2022-10-16 10:49:00+00:00,241.3031,13.11,11.93,47.84626,-54.09684
2022-10-16 10:59:00+00:00,242.9131,13.15,11.93,47.84626,-54.09684
2022-10-16 11:09:00+00:00,242.8381,13.16,11.93,47.84626,-54.09684
2022-10-16 11:19:01+00:00,248.5581,13.15,12.01,47.84626,-54.09684
2022-10-16 11:29:01+00:00,252.0647,13.17,12.01,47.84626,-54.09684
2022-10-16 11:39:01+00:00,251.7698,13.18,12.01,47.84626,-54.09684
2022-10-16 11:49:01+00:00,251.8932,13.19,12.01,47.84626,-54.09684
2022-10-16 11:59:01+00:00,251.0564,13.2,12.01,47.84626,-54.09684
2022-10-16 12:09:01+00:00,250.7114,13.2,12.01,47.84626,-54.09684
2022-10-16 12:19:00+00:00,252.4681,13.2,12.01,47.84626,-54.09684
2022-10-16 12:29:00+00:00,257.5731,13.2,12.01,47.84626,-54.09684
2022-10-16 12:39:00+00:00,260.3564,13.2,12.01,47.84626,-54.09684
2022-10-16 12:49:00+00:00,262.1964,13.2,12.01,47.84626,-54.09684
2022-10-16 12:59:00+00:00,266.9114,13.2,12.01,47.84626,-54.09684
2022-10-16 13:09:00+00:00,275.6831,13.2,12.01,47.84626,-54.09684
2022-10-16 13:19:00+00:00,280.4464,13.1,12.09,47.84626,-54.09684
2022-10-16 13:29:00+00:00,285.4431,13.11,12.09,47.84626,-54.09684
2022-10-16 13:39:00+00:00,291.5197,13.15,12.09,47.84626,-54.09684
2022-10-16 13:49:00+00:00,297.1329,13.14,12.09,47.84626,-54.09684
2022-10-16 13:59:00+00:00,299.103,13.14,12.09,47.84626,-54.09684
2022-10-16 14:09:00+00:00,303.273,13.19,12.09,47.84626,-54.09684
2022-10-16 14:19:01+00:00,309.2012,13.2,12.33,47.84626,-54.09684
2022-10-16 14:29:01+00:00,311.2047,13.2,12.33,47.84626,-54.09684
2022-10-16 14:39:01+00:00,312.6714,13.22,12.33,47.84626,-54.09684
2022-10-16 14:49:01+00:00,314.8864,13.3,12.33,47.84626,-54.09684
2022-10-16 14:59:01+00:00,318.3614,13.3,12.33,47.84626,-54.09684
2022-10-16 15:09:01+00:00,316.543,13.3,12.33,47.84626,-54.09684
2022-10-16 15:19:00+00:00,317.8313,13.3,12.41,47.84626,-54.09684
2022-10-16 15:29:00+00:00,319.6414,13.3,12.41,47.84626,-54.09684
2022-10-16 15:39:00+00:00,322.0564,13.3,12.41,47.84626,-54.09684
2022-10-16 15:49:00+00:00,322.3363,13.29,12.41,47.84626,-54.09684
2022-10-16 15:59:00+00:00,323.2697,13.3,12.41,47.84626,-54.09684
2022-10-16 16:09:00+00:00,325.5646,13.21,12.41,47.84626,-54.09684
2022-10-16 16:19:00+00:00,324.4197,13.2,12.41,47.84626,-54.09684
2022-10-16 16:29:00+00:00,325.7064,13.21,12.41,47.84626,-54.09684
2022-10-16 16:39:00+00:00,326.308,13.28,12.41,47.84626,-54.09684
2022-10-16 16:49:00+00:00,325.903,13.29,12.41,47.84626,-54.09684
2022-10-16 16:59:00+00:00,325.0763,13.3,12.41,47.84626,-54.09684
2022-10-16 17:09:00+00:00,325.733,13.3,12.41,47.84626,-54.09684
2022-10-16 17:19:00+00:00,325.7696,13.3,12.25,47.84626,-54.09684
2022-10-16 17:29:00+00:00,322.713,13.3,12.25,47.84626,-54.09684
2022-10-16 17:39:00+00:00,321.4664,13.3,12.25,47.84626,-54.09684
2022-10-16 17:49:00+00:00,318.7146,13.3,12.25,47.84626,-54.09684
2022-10-16 17:59:00+00:00,314.0447,13.3,12.25,47.84626,-54.09684
2022-10-16 18:09:00+00:00,307.7113,13.3,12.25,47.84626,-54.09684
2022-10-16 18:19:01+00:00,304.228,13.3,12.17,47.84626,-54.09684
2022-10-16 18:29:01+00:00,299.7932,13.3,12.17,47.84626,-54.09684
2022-10-16 18:39:01+00:00,295.1397,13.3,12.17,47.84626,-54.09684
2022-10-16 18:49:01+00:00,287.7747,13.3,12.17,47.84626,-54.09684
2022-10-16 18:59:01+00:00,282.2547,13.3,12.17,47.84626,-54.09684
2022-10-16 19:09:01+00:00,275.8098,13.3,12.17,47.84626,-54.09684
2022-10-16 19:19:00+00:00,269.9897,13.3,12.09,47.84626,-54.09684
2022-10-16 19:29:00+00:00,264.9748,13.3,12.09,47.84626,-54.09684
2022-10-16 19:39:00+00:00,258.4614,13.3,12.09,47.84626,-54.09684
2022-10-16 19:49:00+00:00,252.9464,13.3,12.09,47.84626,-54.09684
2022-10-16 19:59:00+00:00,248.3081,13.31,12.09,47.84626,-54.09684
2022-10-16 20:09:00+00:00,243.3748,13.3,12.09,47.84626,-54.09684
2022-10-16 20:19:00+00:00,239.8581,13.3,12.09,47.84626,-54.09684
2022-10-16 20:29:00+00:00,238.2798,13.31,12.09,47.84626,-54.09684
2022-10-16 20:39:00+00:00,234.6947,13.33,12.09,47.84626,-54.09684
2022-10-16 20:49:00+00:00,231.8414,13.34,12.09,47.84626,-54.09684
2022-10-16 20:59:00+00:00,230.2064,13.33,12.09,47.84626,-54.09684
2022-10-16 21:09:00+00:00,228.3381,13.33,12.09,47.84626,-54.09684
2022-10-16 21:19:00+00:00,228.1048,13.34,12.01,47.84626,-54.09684
2022-10-16 21:29:00+00:00,229.8831,13.33,12.01,47.84626,-54.09684
2022-10-16 21:39:00+00:00,232.2898,13.32,12.01,47.84626,-54.09684
2022-10-16 21:49:00+00:00,234.9998,13.32,12.01,47.84626,-54.09684
2022-10-16 21:59:00+00:00,235.3931,13.32,12.01,47.84626,-54.09684
2022-10-16 22:09:00+00:00,235.4381,13.31,12.01,47.84626,-54.09684
2022-10-16 22:19:00+00:00,237.6664,13.3,12.01,47.84626,-54.09684
2022-10-16 22:29:00+00:00,239.6214,13.3,12.01,47.84626,-54.09684
2022-10-16 22:39:00+00:00,241.8998,13.3,12.01,47.84626,-54.09684
2022-10-16 22:49:00+00:00,245.2681,13.3,12.01,47.84626,-54.09684
2022-10-16 22:59:00+00:00,245.1631,13.3,12.01,47.84626,-54.09684
2022-10-16 23:09:00+00:00,245.0197,13.31,12.01,47.84626,-54.09684
2022-10-16 23:19:00+00:00,246.2247,13.33,12.01,47.84626,-54.09684
2022-10-16 23:29:00+00:00,246.2247,13.33,12.01,47.84626,-54.09684
2022-10-16 23:39:00+00:00,246.2914,13.34,12.01,47.84626,-54.09684
2022-10-16 23:49:00+00:00,246.7031,13.35,12.01,47.84626,-54.09684
2022-10-16 23:59:00+00:00,246.9347,13.37,12.01,47.84626,-54.09684
